TimeMST,TemperatureF,Dew PointF,Humidity,Sea Level PressureIn,VisibilityMPH,Wind Direction,Wind SpeedMPH,Gust SpeedMPH,PrecipitationIn,Events,Conditions,WindDirDegrees,DateUTC
12:52 AM,7.0,1.9,80,30.35,4.0,Calm,Calm,-,0.00,Snow,Light Snow,0,2014-02-09 07:52:00
1:52 AM,6.1,1.0,80,30.35,7.0,Calm,Calm,-,0.00,Snow,Light Snow,0,2014-02-09 08:52:00
2:13 AM,6.8,-0.4,72,30.17,2.0,NNE,6.9,-,0.00,Snow,Light Snow,20,2014-02-09 09:13:00
2:20 AM,6.8,-0.4,72,30.17,2.0,NNE,6.9,-,0.00,Snow,Light Snow,30,2014-02-09 09:20:00
2:37 AM,5.0,-0.4,78,30.17,3.0,NNE,5.8,-,0.00,Snow,Light Snow,20,2014-02-09 09:37:00
2:52 AM,5.0,-0.9,76,30.36,4.0,NNE,4.6,-,0.00,Snow,Light Snow,30,2014-02-09 09:52:00
3:39 AM,5.0,-0.4,78,30.18,2.5,North,5.8,-,0.00,Snow,Light Snow,10,2014-02-09 10:39:00
3:52 AM,3.9,-0.9,80,30.37,2.5,North,5.8,-,0.00,Snow,Light Snow,10,2014-02-09 10:52:00
4:11 AM,3.2,-2.2,78,30.18,3.0,NNE,10.4,-,0.01,Snow,Light Snow,20,2014-02-09 11:11:00
4:41 AM,3.2,-2.2,78,30.17,1.8,NNE,4.6,-,0.01,Snow,Light Snow,30,2014-02-09 11:41:00
4:52 AM,3.9,-0.9,80,30.37,1.2,NNE,5.8,-,0.01,Snow,Light Snow,20,2014-02-09 11:52:00
5:50 AM,3.2,-2.2,78,30.17,2.0,NNE,3.5,-,0.01,Snow,Light Snow,30,2014-02-09 12:50:00
5:52 AM,3.9,-2.0,76,30.38,2.0,NNE,4.6,-,0.01,Snow,Light Snow,30,2014-02-09 12:52:00
6:00 AM,3.2,-2.2,78,30.18,1.5,NNE,3.5,-,0.00,Snow,Light Snow,30,2014-02-09 13:00:00
6:24 AM,3.2,-2.2,78,30.17,1.0,NE,3.5,-,0.01,Snow,Light Snow,40,2014-02-09 13:24:00
6:35 AM,3.2,-2.2,78,30.17,0.8,NE,3.5,-,0.02,Snow,Light Snow,40,2014-02-09 13:35:00
6:52 AM,3.0,-0.9,84,30.38,0.8,Calm,Calm,-,0.03,Snow,Light Snow,0,2014-02-09 13:52:00
7:15 AM,3.2,-0.4,85,30.19,1.0,Calm,Calm,-,0.01,Snow,Light Snow,0,2014-02-09 14:15:00
7:36 AM,3.2,-0.4,85,30.19,1.8,Calm,Calm,-,0.02,Snow,Light Snow,0,2014-02-09 14:36:00
7:52 AM,3.9,-0.9,80,30.38,2.0,Calm,Calm,-,0.02,Snow,Light Snow,0,2014-02-09 14:52:00
8:00 AM,3.2,-0.4,85,30.19,1.2,Calm,Calm,-,0.00,Snow,Light Snow,0,2014-02-09 15:00:00
8:24 AM,3.2,-0.4,85,30.20,2.0,Calm,Calm,-,0.00,Snow,Light Snow,0,2014-02-09 15:24:00
8:50 AM,3.2,-2.2,78,30.20,1.5,NE,3.5,-,0.00,Snow,Light Snow,40,2014-02-09 15:50:00
8:52 AM,3.9,-2.0,76,30.41,1.2,NE,3.5,-,0.00,Snow,Light Snow,50,2014-02-09 15:52:00
9:19 AM,5.0,-0.4,78,30.20,2.5,Calm,Calm,-,0.00,Snow,Light Snow,0,2014-02-09 16:19:00
9:52 AM,6.1,-0.9,73,30.43,2.5,Calm,Calm,-,0.00,Snow,Light Snow,0,2014-02-09 16:52:00
10:52 AM,5.0,-0.9,76,30.44,3.0,Calm,Calm,-,0.00,Snow,Light Snow,0,2014-02-09 17:52:00
11:52 AM,8.1,-0.0,70,30.41,5.0,Calm,Calm,-,0.00,Snow,Light Snow,0,2014-02-09 18:52:00
12:52 PM,8.1,1.0,73,30.38,5.0,East,4.6,-,0.00,Snow,Light Snow,80,2014-02-09 19:52:00
1:39 PM,8.6,-0.4,67,30.17,10.0,ENE,3.5,-,0.00,,Mostly Cloudy,70,2014-02-09 20:39:00
1:52 PM,9.0,1.0,70,30.37,10.0,ENE,3.5,-,0.00,,Mostly Cloudy,70,2014-02-09 20:52:00
2:01 PM,8.6,-0.4,67,30.17,10.0,ENE,4.6,-,N/A,,Partly Cloudy,60,2014-02-09 21:01:00
2:52 PM,8.1,-0.0,70,30.40,10.0,East,5.8,-,N/A,,Partly Cloudy,90,2014-02-09 21:52:00
3:52 PM,8.1,-0.0,70,30.40,10.0,East,5.8,-,N/A,,Overcast,90,2014-02-09 22:52:00
4:33 PM,6.8,-0.4,72,30.20,9.0,NE,4.6,-,N/A,,Mostly Cloudy,50,2014-02-09 23:33:00
4:40 PM,5.0,-2.2,72,30.19,9.0,ENE,4.6,-,N/A,,Mostly Cloudy,60,2014-02-09 23:40:00
4:52 PM,3.9,-2.0,76,30.43,10.0,ENE,3.5,-,N/A,,Mostly Cloudy,70,2014-02-09 23:52:00
5:52 PM,3.9,-2.0,76,30.45,10.0,Calm,Calm,-,N/A,,Overcast,0,2014-02-10 00:52:00
6:52 PM,3.9,-2.0,76,30.46,10.0,ENE,4.6,-,N/A,,Overcast,70,2014-02-10 01:52:00
7:52 PM,3.9,-0.9,80,30.45,10.0,Calm,Calm,-,N/A,,Mostly Cloudy,0,2014-02-10 02:52:00
8:52 PM,-5.1,-8.0,87,30.48,10.0,ENE,3.5,-,N/A,,Clear,70,2014-02-10 03:52:00
9:52 PM,-9.0,-11.9,87,30.47,10.0,ENE,4.6,-,N/A,,Clear,70,2014-02-10 04:52:00
10:08 PM,-9.4,-14.8,77,30.21,1.8,Calm,Calm,-,N/A,,Partly Cloudy,0,2014-02-10 05:08:00
10:19 PM,-11.2,-14.8,84,30.21,3.0,Calm,Calm,-,N/A,,Clear,0,2014-02-10 05:19:00
10:52 PM,-11.9,-17.0,78,30.49,7.0,Calm,Calm,-,N/A,,Partly Cloudy,0,2014-02-10 05:52:00
11:14 PM,-11.2,-16.6,77,30.21,10.0,Calm,Calm,-,N/A,,Mostly Cloudy,0,2014-02-10 06:14:00
11:52 PM,-7.1,-11.0,83,30.44,10.0,Calm,Calm,-,N/A,,Overcast,0,2014-02-10 06:52:00